Погода в Олекминске

Россия / Республика Саха (Якутия)     60°22′32″N   120°24′21″E
темп.,
°C
ветер,
м/с
пор.,
м/с
влажн.,
%
обл.,
%
осадки,
мм/ч
давл.,
гПа
погр.,
м
6 марта, сб
сб600:00−30ююв11943 0.0 103219
03:00−32ююв11941 0.0 103119
06:00−32юв11930 0.0 102919
09:00−30ююв119212 0.0 102770
12:00−22ююв248284 0.0 1023335
15:00−16ю258176 0.0 1019462
18:00−16юв129197 0.0 101836
21:00−18юв129499 0.0 101720
7 марта, вс
вс700:00−17ююв1197100 0.1 101633
03:00−17ю1198100 0.4 101521
06:00−16ю1298100 0.1 101438
09:00−14ююз2397100 0.3 1014138
12:00−10ююз359498 0.2 1013326
15:00−6юз478899 0.4 1010783
18:00−7ю2290100 0.1 100856
21:00−9ю2392100 0.1 100567
8 марта, пн
пн800:00−9ю2695100 0.1 1002205
03:00−8юз2797100 0.3 1000192
06:00−8юз3993100 0.0 999313
09:00−8юз31094100 0.1 999470
12:00−4зюз5883100 0.1 9991068
15:00−4з5883100 0.3 1000996
18:00−6з41088100 0.1 1002775
21:00−7з3993100 0.3 1005468
9 марта, вт
вт900:00−8зсз41090100 0.2 1008626
03:00−10зсз3119099 0.2 1011459
06:00−13з399265 0.0 1014223
09:00−13зюз3109352 0.0 1016412
12:00−8зюз488597 0.1 10161040
15:00−7зюз478099 0.2 10141059
18:00−8ю2590100 0.1 1011171
21:00−10ююв21091100 0.1 1008284
10 марта, ср
ср1000:00−9ю31195100 0.4 1005655
03:00−9ююз31093100 0.8 1002442
06:00−6зюз61390100 0.5 10031089
09:00−10зюз51381100 0.5 10061211
12:00−9з71380100 0.1 10091486
15:00−9з71379100 0.3 10111511
18:00−11з51181100 0.1 10141167
21:00−15юз369181 0.1 101793